CST,Max TemperatureF,Mean TemperatureF,Min TemperatureF,Max Dew PointF,MeanDew PointF,Min DewpointF,Max Humidity, Mean Humidity, Min Humidity, Max Sea Level PressureIn, Mean Sea Level PressureIn, Min Sea Level PressureIn, Max VisibilityMiles, Mean VisibilityMiles, Min VisibilityMiles, Max Wind SpeedMPH, Mean Wind SpeedMPH, Max Gust SpeedMPH,PrecipitationIn, CloudCover, Events, WindDirDegrees
2013-12-1,30,24,17,23,21,14,89,79,69,30.21,30.11,29.96,10,9,5,6,1,,0.00,7,,230
2013-12-2,32,24,16,29,26,13,93,88,80,29.97,29.77,29.68,9,2,0,12,4,20,0.17,8,Fog-Snow,122
2013-12-3,32,29,26,29,27,21,93,89,80,29.91,29.76,29.67,10,4,0,15,8,23,0.13,8,Fog-Rain-Snow,81
2013-12-4,32,26,21,31,26,19,96,89,80,29.88,29.59,29.34,10,4,0,14,8,23,0.83,8,Fog-Rain-Snow,56
2013-12-5,21,10,-2,17,3,-8,86,79,73,30.30,29.88,29.51,10,6,2,14,9,25,0.00,6,Snow,239
2013-12-6,3,-6,-17,-5,-11,-21,82,77,69,30.63,30.47,30.31,10,10,10,8,3,,0.00,1,,241
2013-12-7,-2,-11,-20,-10,-19,-26,82,75,68,30.73,30.68,30.63,10,10,8,8,2,,0.00,0,,212
2013-12-8,8,-6,-20,4,-4,-28,84,78,70,30.62,30.27,29.97,10,4,1,6,1,,0.00,7,Snow,108
2013-12-9,8,0,-9,4,-6,-16,85,77,66,30.10,29.95,29.86,10,5,1,12,4,21,0.00,7,Snow,236
2013-12-10,3,-6,-15,-4,-10,-20,84,77,66,30.27,29.98,29.76,10,7,1,9,3,,0.01,5,Snow,187
2013-12-11,-4,-10,-17,-12,-16,-24,79,74,65,30.55,30.46,30.29,10,10,5,7,2,,0.00,1,Snow,228
2013-12-12,10,2,-7,5,-4,-13,87,78,73,30.35,30.26,30.13,10,7,2,5,2,,0.00,7,Snow,201
2013-12-13,10,6,3,5,1,-4,85,77,69,30.40,30.26,30.13,10,7,2,9,3,,0.01,7,Snow,39
2013-12-14,15,9,3,11,4,-3,86,80,70,30.38,30.12,29.94,10,3,1,8,5,,0.00,8,Snow,128
2013-12-15,1,-11,-23,-4,-15,-29,84,74,60,30.22,30.12,29.95,10,10,10,6,2,,0.00,2,,270
2013-12-16,10,-2,-14,9,-2,-19,92,80,69,30.19,29.99,29.84,10,5,0,12,4,20,0.05,8,Fog-Snow,193
2013-12-17,26,14,1,20,11,-5,93,82,64,30.10,29.87,29.76,10,6,0,14,3,26,0.07,7,Fog-Snow,267
2013-12-18,26,10,-7,16,3,-12,92,78,63,30.09,29.84,29.62,10,9,2,9,2,21,0.00,2,,171
2013-12-19,16,8,1,11,8,-4,85,80,71,30.16,30.04,29.86,10,6,1,14,3,,0.04,7,Snow,28
2013-12-20,19,8,-2,12,7,-8,92,82,68,30.11,30.01,29.89,10,8,1,6,2,,0.01,5,Snow,46
2013-12-21,21,15,9,14,11,5,88,81,71,30.04,29.97,29.82,10,10,10,7,1,,0.00,8,,33
2013-12-22,21,18,15,18,16,12,93,86,78,30.17,30.01,29.92,10,4,1,9,3,17,0.03,8,Snow,18
2013-12-23,19,5,-9,16,6,-14,93,82,73,30.51,30.29,30.10,10,5,1,8,5,,0.01,7,Snow,32
2013-12-24,10,-4,-18,7,-3,-26,86,79,70,30.51,30.30,30.09,10,6,1,12,4,18,0.03,5,Snow,177
2013-12-25,16,11,6,12,6,1,87,81,70,30.16,30.05,29.97,10,4,1,8,4,,0.01,8,Snow,203
2013-12-26,16,10,1,11,5,-2,92,80,73,30.23,30.15,30.05,10,9,4,4,0,,0.00,8,Snow,190
2013-12-27,32,16,1,25,15,-4,93,87,75,30.21,29.99,29.86,10,5,0,14,3,18,0.00,4,Fog,194
2013-12-28,32,22,12,30,20,8,96,87,79,30.01,29.86,29.70,10,4,0,17,3,30,0.00,7,Fog-Snow,93
2013-12-29,15,-4,-25,9,-8,-31,85,72,56,30.33,30.19,30.00,10,7,2,9,6,17,0.00,5,Snow,342
2013-12-30,-4,-16,-27,-11,-22,-35,83,71,59,30.36,30.29,30.13,10,9,4,5,0,,0.00,5,Snow,196
2013-12-31,-4,-15,-26,-15,-23,-32,78,71,56,30.52,30.36,30.22,10,10,7,6,1,,0.00,1,,310